CZ-6A DEB

Satellite information

Favourite Embed

Satellite Type and Status

DEBRISIN ORBIT

Key statistics

Satellite CZ-6A DEB at a glance.

Uptime

397

Days in orbit

Revolutions

≈ 14.1

Per day

Orbit

LEO

Low Earth Orbit

Inclination

89.1

Latest

Satellite identification and parameters

Extended collection of information and parameters for CZ-6A DEB.

Object identification

Identified? True

Debris? True

Object name: CZ-6A DEB

International designator: 2024-140KC

Object number (NORAD): 60873

Object ID (CCSDS): 60873

Country: PEOPLES REPUBLIC OF CHINA (PRC)

Current information (Y/N): Y

RCS size: SMALL

Orbital parameters

Period: 101.809 minutes

Inclination: 89.1234 deg

SMA: 7222.461 km

Apoapsis: 897.896 km

Periapsis: 790.756 km

RAAN: 312.5955 deg

Eccentricy: 0.00741711

Argument of periapsis: 35.2977 deg

Mean anomaly: 325.3088 deg

Mean motion: 14.14408832 rev/day

Mean motion (dot): 0.00001165 rev/day2

B* drag term: 0.00058634667 1/REarth

Two-line elements (TLE)

Creation date: Sept. 7, 2025, 3:09 a.m.

Reference frame: TEME

Reference center: EARTH

Epoch: Sept. 6, 2025, 3:42 p.m. UTC

TLE line 0: 0 CZ-6A DEB

TLE line 1: 1 60873U 24140KC 25249.65446087 .00001165 00000-0 58635-3 0 9990

TLE line 2: 2 60873 89.1234 312.5955 0074171 35.2977 325.3088 14.14408832 54751

Live tracking on map

Real-time ground track for satellite CZ-6A DEB.

In-orbit conjunctions

A list of the most updated potential collisions computed for object CZ-6A DEB.

Target Orbit TCA Probability of collision Miss distance Type
NOAA 16 DEB SSO 2025-08-22 12:54:30 0.0001112424 330.0 (m) DEBRIS
FENGYUN 1C DEB SSO 2025-08-03 01:54:55 0.0001408234 916.0 (m) DEBRIS
FENGYUN 1C DEB SSO 2025-02-27 03:16:39 0.0002241335 121.0 (m) DEBRIS
CZ-6A DEB SSO 2025-02-18 09:30:31 0.0001090618 137.0 (m) DEBRIS
CZ-6A DEB SSO 2025-02-03 06:48:47 0.0001576683 611.0 (m) DEBRIS

Associated space launch

18 Low Earth Orbit communication satellites with Ku, Q and V band payloads for the G60 constellation operated by Shanghai Spacecom Satellite Technology (SSST) with funding backed by the Shanghai local government. Initial constellation will consist of 1296 satellites by 2027 with long term plans to expand it to 12000 satellites.

CZ-6A DEB was lifted into orbit during the mission ‘Long March 6A | G60 Polar Group 01’, on board a Long March 6A space rocket.

The launch took place on Aug. 6, 2024, 6:42 a.m. from Launch Complex 9A.

For more information about the launch, click the button.

Launch to space Long March 6A | G60 Polar Group 01
Long March 6A | G60 Polar Group 01

Agency: N/A

Status: Launch Successful

Launch date: Aug. 6, 2024, 6:42 a.m. UTC

Rocket: Long March 6A

Launch pad: Launch Complex 9A

Location: Taiyuan Satellite Launch Center, People's Republic of China

...

Latest news about this satellite

News about space launch
Brightness of first Chinese broadband constellation satellites alarms astronomers

The first satellites of a Chinese broadband constellation are significantly brighter than those of Western systems, posing a new challenge for astronomers.

News about space launch
Chinese rocket stage breaks up into cloud of more than 700 pieces of space debris

HELSINKI — A Chinese Long March 6A rocket’s upper stage has fragmented into a cloud of over 700 pieces of space debris, adding to concerns about long-term orbital safety. China […]

News about space launch
China's Thousand Sails Megaconstellation Kicks Off with Dangerous Debris Field

China's Thousand Sails Megaconstellation Kicks Off with Dangerous Debris Field


Newsletter sign-up

Weekly statistics, charts and insights to help you stay on top of the space industry.